Weather History for Mayport NS, FL

Change the Weather History Date:

Sunday, October 13, 2013

  Actual Average Record
Temperature  
Mean Temperature 72 °F -  
Max Temperature 82 °F 77 °F 86 °F (2010)
Min Temperature 64 °F 66 °F 57 °F (2000)
Cooling Degree Days 8    
Growing Degree Days 22 (Base 50)    
Moisture  
Dew Point 64 °F    
Average Humidity 76    
Maximum Humidity 93    
Minimum Humidity 50    
Precipitation  
Precipitation 0.00 in - - ()
Sea Level Pressure  
Sea Level Pressure 30.06 in    
Wind  
Wind Speed 7 mph (NNW)    
Max Wind Speed 16 mph    
Max Gust Speed -    
Visibility 10 miles    
Events      
Averages and records for this station are not official NWS values.
T = Trace of Precipitation, MM = Missing Value Source: NWS Daily Summary

Daily Weather History Graph

Daily Weather History Graph

Search for Another Location

Airport:

Trip Planner

Search our weather history database for the weather conditions in past years. The results will help you decide how hot, cold, wet, or windy it might be!

Date:

Astronomy

Oct. 13, 2013 Rise Set
Actual Time 7:26 AM EDT 6:56 PM EDT
Civil Twilight 7:02 AM EDT 7:20 PM EDT
Nautical Twilight 6:34 AM EDT 7:48 PM EDT
Astronomical Twilight 6:06 AM EDT 8:16 PM EDT
Moon 3:27 PM EDT (10/13) 1:57 AM EDT (10/13)
Length of Visible Light 12h 18m
Length of Day
11h 29m
Waxing Gibbous, 69% of the Moon is Illuminated
Oct 13
Waxing Gibbous
Oct 18
Full
Oct 26
Last Quarter
Nov 3
New
Nov 10
First Quarter

Hourly Weather History & Observations

Time (EDT) Temp. Heat Index Dew Point Humidity Pressure Visibility Wind Dir Wind Speed Gust Speed Precip Events Conditions
12:52 AM 66.0 °F - 63.0 °F 90% 30.05 in 10.0 mi WSW 3.5 mph - N/A   Clear
1:52 AM 64.9 °F - 62.1 °F 90% 30.04 in 10.0 mi SW 4.6 mph - N/A   Clear
2:52 AM 66.0 °F - 62.1 °F 87% 30.03 in 10.0 mi SW 4.6 mph - N/A   Clear
3:52 AM 66.9 °F - 63.0 °F 87% 30.03 in 10.0 mi West 3.5 mph - N/A   Clear
4:52 AM 64.9 °F - 63.0 °F 93% 30.03 in 10.0 mi West 3.5 mph - N/A   Clear
5:12 AM 68.0 °F - 64.9 °F 90% 30.03 in 10.0 mi West 4.6 mph - N/A   Partly Cloudy
5:52 AM 68.0 °F - 64.0 °F 87% 30.04 in 10.0 mi West 3.5 mph - N/A   Clear
6:52 AM 66.0 °F - 63.0 °F 90% 30.05 in 10.0 mi WNW 4.6 mph - N/A   Clear
7:52 AM 66.0 °F - 63.0 °F 90% 30.06 in 10.0 mi WSW 4.6 mph - N/A   Clear
8:52 AM 70.0 °F - 63.0 °F 78% 30.08 in 10.0 mi West 5.8 mph - N/A   Clear
9:52 AM 72.0 °F - 62.1 °F 71% 30.10 in 10.0 mi West 6.9 mph - N/A   Clear
10:52 AM 75.9 °F - 62.1 °F 62% 30.10 in 10.0 mi West 5.8 mph - N/A   Clear
11:07 AM 77.0 °F - 62.1 °F 60% 30.11 in 10.0 mi West 5.8 mph - N/A   Partly Cloudy
11:52 AM 80.1 °F 80.9 °F 60.1 °F 50% 30.10 in 10.0 mi Variable 3.5 mph - N/A   Partly Cloudy
12:52 PM 81.0 °F 81.7 °F 61.0 °F 50% 30.09 in 10.0 mi NE 8.1 mph - N/A   Scattered Clouds
1:52 PM 79.0 °F - 66.0 °F 64% 30.07 in 10.0 mi NE 12.7 mph - N/A   Mostly Cloudy
2:52 PM 79.0 °F - 63.0 °F 58% 30.06 in 10.0 mi NNE 13.8 mph - N/A   Mostly Cloudy
3:52 PM 79.0 °F - 66.0 °F 64% 30.05 in 10.0 mi NNE 13.8 mph - N/A   Mostly Cloudy
4:52 PM 78.1 °F - 69.1 °F 74% 30.04 in 10.0 mi NNE 15.0 mph - N/A   Mostly Cloudy
5:52 PM 75.9 °F - 68.0 °F 76% 30.04 in 10.0 mi NNE 13.8 mph - N/A   Scattered Clouds
6:52 PM 73.9 °F - 66.0 °F 76% 30.06 in 10.0 mi NE 16.1 mph - N/A   Scattered Clouds
7:52 PM 73.0 °F - 64.9 °F 76% 30.08 in 10.0 mi NE 15.0 mph - N/A   Scattered Clouds
8:52 PM 73.0 °F - 64.9 °F 76% 30.09 in 10.0 mi NE 13.8 mph - N/A   Mostly Cloudy
9:52 PM 73.0 °F - 64.0 °F 73% 30.09 in 10.0 mi NE 11.5 mph - N/A   Mostly Cloudy
10:52 PM 73.0 °F - 64.0 °F 73% 30.09 in 10.0 mi NE 12.7 mph - N/A   Mostly Cloudy
11:52 PM 72.0 °F - 64.9 °F 78% 30.08 in 10.0 mi NNE 11.5 mph - N/A   Mostly Cloudy